Weather History for KENW - August, 2013

Change the Weather History Date:

Tuesday, August 20, 2013

  Actual Average Record
Temperature  
Mean Temperature 74 °F -  
Max Temperature 88 °F 76 °F 96 °F (1955)
Min Temperature 60 °F 60 °F 45 °F (1950)
Cooling Degree Days 8    
Growing Degree Days 24 (Base 50)    
Moisture  
Dew Point 62 °F    
Average Humidity 71    
Maximum Humidity 100    
Minimum Humidity 41    
Precipitation  
Precipitation 0.00 in - - ()
Sea Level Pressure  
Sea Level Pressure 30.07 in    
Wind  
Wind Speed 6 mph (SW)    
Max Wind Speed 13 mph    
Max Gust Speed 20 mph    
Visibility 6 miles    
Events      
Averages and records for this station are not official NWS values.
T = Trace of Precipitation, MM = Missing Value Source: NWS Daily Summary

Daily Weather History Graph

Daily Weather History Graph

Search for Another Location

Airport or City:

Trip Planner

Search our weather history database for the weather conditions in past years. The results will help you decide how hot, cold, wet, or windy it might be!

Date:

Astronomy

Aug. 20, 2013 Rise Set
Actual Time 6:04 AM CDT 7:45 PM CDT
Civil Twilight 5:34 AM CDT 8:15 PM CDT
Nautical Twilight 4:57 AM CDT 8:51 PM CDT
Astronomical Twilight 4:18 AM CDT 9:30 PM CDT
Moon 7:15 PM CDT (8/20) 5:34 AM CDT (8/20)
Length of Visible Light 14h 40m
Length of Day
13h 41m
Full, 100% of the Moon is Illuminated
Aug 20
Full
Aug 20
Full
Aug 28
Last Quarter
Sep 5
New
Sep 12
First Quarter

Hourly Weather History & Observations

Time (CDT) Temp. Heat Index Dew Point Humidity Pressure Visibility Wind Dir Wind Speed Gust Speed Precip Events Conditions
12:53 AM 66.9 °F - 62.1 °F 84% 30.05 in 6.0 mi SW 4.6 mph - N/A   Haze
1:53 AM 68.0 °F - 63.0 °F 84% 30.05 in 7.0 mi SW 4.6 mph - N/A   Clear
2:53 AM 64.9 °F - 61.0 °F 87% 30.05 in 6.0 mi SW 3.5 mph - N/A   Clear
3:45 AM 60.8 °F - 60.8 °F 100% 30.07 in 2.0 mi SSW 3.5 mph - N/A   Clear
3:53 AM 62.1 °F - 60.1 °F 93% 30.06 in 2.5 mi SSW 4.6 mph - N/A   Clear
4:00 AM 64.4 °F - 60.8 °F 88% 30.07 in 4.0 mi SW 4.6 mph - N/A   Clear
4:36 AM 62.6 °F - 59.0 °F 88% 30.07 in 2.5 mi SW 3.5 mph - N/A   Clear
4:46 AM 64.4 °F - 62.6 °F 94% 30.07 in 4.0 mi SSW 5.8 mph - N/A   Clear
4:53 AM 64.0 °F - 62.1 °F 93% 30.06 in 4.0 mi SW 4.6 mph - N/A   Clear
5:53 AM 63.0 °F - 60.1 °F 90% 30.08 in 3.0 mi SSW 4.6 mph - N/A   Clear
6:13 AM 64.4 °F - 60.8 °F 88% 30.09 in 2.5 mi SW 5.8 mph - N/A   Clear
6:53 AM 64.9 °F - 63.0 °F 93% 30.10 in 4.0 mi SW 4.6 mph - N/A   Clear
7:53 AM 69.1 °F - 64.0 °F 84% 30.11 in 4.0 mi SW 4.6 mph - N/A   Haze
8:53 AM 75.0 °F - 66.0 °F 73% 30.11 in 5.0 mi WSW 8.1 mph - N/A   Haze
9:53 AM 79.0 °F - 64.9 °F 62% 30.11 in 6.0 mi WSW 10.4 mph - N/A   Haze
10:53 AM 82.0 °F 83.8 °F 64.9 °F 56% 30.11 in 7.0 mi SW 12.7 mph - N/A   Clear
11:53 AM 84.0 °F 84.9 °F 63.0 °F 49% 30.09 in 8.0 mi SSW 12.7 mph 19.6 mph N/A   Clear
12:53 PM 84.9 °F 85.0 °F 61.0 °F 44% 30.08 in 8.0 mi SW 11.5 mph 17.3 mph N/A   Partly Cloudy
1:53 PM 86.0 °F 86.1 °F 61.0 °F 43% 30.07 in 8.0 mi SW 9.2 mph - N/A   Partly Cloudy
2:53 PM 87.1 °F 87.0 °F 61.0 °F 41% 30.06 in 8.0 mi SSW 11.5 mph - N/A   Scattered Clouds
3:53 PM 86.0 °F 86.1 °F 61.0 °F 43% 30.05 in 9.0 mi SSW 12.7 mph 18.4 mph N/A   Partly Cloudy
4:53 PM 86.0 °F 86.1 °F 61.0 °F 43% 30.04 in 8.0 mi SW 10.4 mph - N/A   Partly Cloudy
5:53 PM 84.0 °F 84.4 °F 61.0 °F 46% 30.04 in 8.0 mi SW 11.5 mph - N/A   Partly Cloudy
6:53 PM 82.0 °F 83.0 °F 62.1 °F 51% 30.03 in 7.0 mi SW 6.9 mph - N/A   Clear
7:53 PM 79.0 °F - 62.1 °F 56% 30.04 in 7.0 mi SSW 6.9 mph - N/A   Clear
8:53 PM 73.9 °F - 62.1 °F 66% 30.05 in 8.0 mi South 4.6 mph - N/A   Clear
9:53 PM 73.9 °F - 62.1 °F 66% 30.05 in 8.0 mi South 4.6 mph - N/A   Clear
10:53 PM 71.1 °F - 62.1 °F 73% 30.05 in 7.0 mi South 4.6 mph - N/A   Clear
11:53 PM 70.0 °F - 62.1 °F 76% 30.05 in 7.0 mi SSW 5.8 mph - N/A   Clear